Location: Scarborough
(43.7500°N, 79.2000°W)
Time: 08:16:36
(UTC-04:00)

Tiangong 2 - Visible Passes

Search period start: 16 October 2018 00:00
Search period end: 26 October 2018 00:00
Orbit: 383 x 393 km, 42.8° (Epoch: 16 October)

Date Brightness Start Highest point End Pass type
(mag) Time Alt. Az. Time Alt. Az. Time Alt. Az.
16 Oct 4.4 04:54:56 12° ESE 04:54:56 12° ESE 04:55:13 10° ESE visible
16 Oct 2.3 06:27:15 21° WSW 06:28:38 29° SSW 06:31:27 10° SE visible
17 Oct 3.0 05:31:53 24° SE 05:31:53 24° SE 05:33:27 10° SE visible
18 Oct 3.0 06:08:53 18° SSW 06:08:53 18° SSW 06:10:54 10° SSE visible
